Theta_e
287 287 287 289 287 289 288 290 286 289 289 293 294 292 291 290 290 291 293 294 293 292 293 293 293 294 295 295 296 297 297 296 296 296 298 299 301 302 303 306 310 311 312 311
284 288 288 286 289 290 290 290 289 290 290 297 294 293 289 290 290 291 292 294 294 292 292 293 294 294 294 294 295 297 297 297 297 296 295 298 298 297 297 297 298 298 297 297
276 285 284 282 286 288 289 292 293 288 293 295 294 294 294 290 290 291 292 295 295 294 293 293 293 294 294 295 295 296 294 292 291 291 293 293 293 293 292 293 293 293 293 293
271 276 272 283 290 292 289 291 294 295 296 298 298 299 296 298 294 292 291 294 294 294 294 294 294 293 294 292 292 292 290 290 290 290 289 290 291 291 291 291 290 290 289 290
268 265 279 281 285 287 287 288 294 293 295 297 298 293 294 297 295 294 294 294 294 294 293 292 291 291 290 288 288 288 288 288 288 287 286 288 288 290 289 287 286 286 285 285
266 265 268 282 288 293 293 284 295 295 295 296 294 291 297 293 294 293 294 293 292 291 290 289 288 288 287 286 285 285 286 286 286 285 286 287 287 286 285 285 284 285 286 285
276 271 276 284 288 294 283 286 290 297 297 297 295 299 297 293 291 291 291 290 289 287 285 284 285 285 284 284 283 284 284 284 284 285 286 286 285 284 285 285 285 285 285 285
279 276 274 287 289 288 292 287 287 291 298 297 299 299 292 291 288 288 287 286 285 283 282 283 284 284 283 282 282 280 282 283 284 285 285 285 286 285 285 285 285 282 283 284
283 281 285 287 283 285 285 286 288 288 290 294 295 290 288 286 285 284 284 283 283 281 279 279 280 283 281 281 281 278 282 281 282 284 285 285 285 285 284 284 284 282 282 283
283 281 278 280 282 281 282 284 286 287 287 289 288 287 284 283 283 282 281 280 279 279 277 275 276 276 277 278 277 276 276 276 275 276 280 282 283 283 284 283 283 282 282 282
281 278 277 281 277 277 279 282 281 284 283 285 285 283 283 281 280 280 278 278 277 276 274 273 273 272 271 274 275 276 275 274 274 273 272 273 274 278 280 281 283 281 282 282
272 268 267 271 275 275 276 278 278 280 281 281 283 281 280 278 278 277 275 274 273 271 271 269 269 268 268 269 271 272 273 273 273 272 271 271 271 271 282 285 286 286 286 280
262 265 265 267 271 274 273 276 276 277 279 278 277 278 276 274 272 271 270 269 268 267 266 266 266 265 264 266 268 270 270 270 269 270 269 268 267 269 269 272 282 283 284 283
264 263 268 269 268 270 271 274 275 273 272 273 272 272 271 269 268 266 266 265 265 264 263 263 263 262 262 264 267 267 265 266 265 265 265 266 267 264 264 265 267 273 278 280
259 261 264 266 267 266 268 270 271 269 269 268 268 268 267 265 263 263 263 263 262 261 260 261 261 260 260 262 264 263 266 264 262 263 264 265 266 266 265 264 265 272 271 273
258 261 261 262 262 264 263 263 266 267 267 266 265 264 263 262 261 260 260 260 261 257 257 259 260 259 260 260 261 261 261 265 262 261 263 264 264 265 265 264 262 262 262 263
255 256 257 257 259 261 261 262 263 265 265 265 264 263 262 262 261 259 258 258 258 257 258 259 259 260 260 259 259 259 259 260 262 262 262 260 259 260 260 261 261 259 261 265
257 258 259 258 258 259 260 261 262 263 263 264 264 264 263 261 260 260 260 260 260 259 258 259 261 259 260 259 258 258 259 258 259 257 258 260 258 258 258 258 257 258 258 260
257 257 258 259 258 258 259 259 260 261 263 264 263 262 262 261 261 261 261 261 260 260 258 260 265 261 260 264 260 260 260 259 258 258 258 258 258 255 255 254 254 253 254 257
256 257 258 258 259 258 258 259 260 260 261 263 263 262 261 262 262 261 260 258 258 259 260 261 261 261 261 260 261 259 259 259 258 257 257 257 254 252 252 253 252 252 251 251
255 256 257 258 258 258 258 259 259 259 260 260 261 260 260 260 260 262 262 260 259 260 261 261 261 262 262 261 260 258 256 257 256 256 254 253 253 254 255 252 252 251 253 251
255 256 256 257 258 258 258 258 259 259 259 259 259 260 260 260 261 259 259 258 260 260 261 260 260 262 262 260 257 256 256 255 254 253 253 252 251 253 253 254 253 253 253 253
255 256 257 257 257 257 258 257 258 258 258 258 258 258 258 259 259 259 259 260 260 260 261 260 261 263 265 259 257 256 255 255 256 255 254 253 253 253 253 255 254 255 254 254
255 256 256 257 258 257 255 256 257 258 258 258 258 258 258 257 259 260 259 259 259 260 259 259 261 264 262 258 257 257 256 256 256 255 255 256 256 255 255 254 255 255 255 255
255 256 256 256 256 255 255 255 256 256 256 256 257 257 257 258 257 257 258 258 259 258 258 259 262 261 257 256 256 255 256 255 255 253 254 255 255 256 256 256 256 256 257 256
253 253 254 255 255 255 254 254 254 254 254 253 254 255 255 255 255 255 255 256 256 256 256 257 256 256 255 255 255 255 256 256 256 256 256 256 256 256 256 256 256 256 255 255
251 252 252 253 254 253 252 252 251 251 250 249 250 252 252 253 253 254 254 254 254 254 254 254 255 255 254 254 254 255 255 255 256 256 256 255 255 255 255 255 255 255 255 255
Wind_Speed
14 9 3 2 9 19 23 27 11 30 28 27 14 9 10 7 7 6 6 5 6 5 5 4 3 1 1 1 1 0 2 3 5 4 3 3 2 3 4 4 3 3 4 2
14 12 19 19 13 14 26 27 24 32 30 16 8 9 7 9 8 10 10 8 7 5 5 5 4 1 1 3 3 1 2 2 1 3 4 4 4 4 4 4 4 4 3 2
8 5 7 13 34 22 17 18 22 23 37 8 13 12 14 10 11 13 10 9 8 7 8 5 1 4 5 5 3 2 2 3 4 4 4 4 4 4 5 5 5 5 5 5
5 4 8 11 3 24 29 27 22 26 30 26 25 18 11 11 13 15 10 9 7 7 3 3 3 4 3 5 5 4 5 5 4 5 5 5 5 5 4 3 4 4 5 5
3 6 11 17 22 7 11 29 28 31 35 29 15 4 16 15 12 14 13 8 6 4 3 4 6 4 5 6 6 6 6 5 4 5 3 4 4 5 4 4 3 4 4 5
2 6 11 31 5 10 6 22 28 23 34 29 9 14 29 9 9 7 7 7 8 7 5 6 6 4 6 6 7 7 6 6 5 5 4 5 5 5 2 3 3 2 4 5
17 7 13 6 8 8 14 15 4 22 33 23 20 30 9 8 5 5 6 9 8 8 8 5 3 5 8 7 7 5 4 3 3 3 5 5 4 2 3 4 4 4 5 4
11 10 21 5 6 22 13 6 4 7 17 15 24 14 8 9 9 10 11 10 9 10 7 5 4 7 7 8 3 2 1 3 4 5 4 3 6 4 4 4 4 4 3 3
12 11 0 4 4 10 11 7 6 7 9 4 9 9 11 10 11 9 10 8 7 8 10 7 7 6 7 3 3 2 4 5 3 4 4 4 5 4 3 4 4 3 4 4
1 2 8 10 10 12 17 12 11 7 8 6 5 8 9 11 12 10 9 9 8 8 9 9 7 7 6 4 3 4 6 5 4 5 5 5 5 4 4 4 3 2 2 2
7 5 10 2 15 18 20 15 12 9 7 4 8 8 12 13 12 10 9 7 7 9 9 9 7 8 7 6 4 5 4 3 4 4 4 4 4 3 3 1 2 2 2 2
1 9 8 10 17 22 20 18 15 11 10 11 4 12 15 13 10 10 10 8 9 10 10 8 7 8 7 7 4 3 4 3 4 4 5 3 3 3 10 12 12 12 12 7
8 18 17 21 22 14 18 15 14 13 9 9 10 12 14 12 12 13 11 11 10 9 9 7 7 9 8 6 3 6 7 6 4 4 2 2 3 4 3 4 10 14 14 13
9 17 7 12 13 19 18 15 10 9 11 9 11 12 11 13 13 12 11 9 8 9 9 7 8 8 6 5 6 8 7 6 2 1 1 2 3 3 2 3 3 4 9 10
17 15 12 14 13 16 16 14 10 11 10 11 13 12 11 13 13 11 8 7 7 9 9 8 7 8 8 8 10 8 5 3 1 0 1 3 3 4 4 4 3 3 4 6
18 13 11 11 14 14 14 15 11 11 10 9 12 13 12 11 11 10 8 7 6 9 6 6 8 7 9 9 7 4 3 5 3 2 3 4 4 4 4 4 4 3 2 2
11 11 17 15 13 14 12 10 10 8 7 11 10 9 11 11 11 11 9 7 8 8 6 8 8 8 7 7 4 2 1 3 5 5 5 4 4 5 3 3 3 3 2 3
6 6 7 8 9 9 10 10 9 10 9 8 7 10 11 10 9 8 5 3 5 10 11 9 7 6 6 4 3 2 3 4 5 4 3 5 4 4 4 3 4 4 3 4
7 7 8 7 8 8 7 9 9 8 9 8 9 11 9 9 8 7 6 7 8 7 9 8 10 7 6 8 5 5 5 5 5 4 4 4 4 4 3 3 3 2 3 3
8 9 9 9 9 9 8 9 8 9 10 9 8 9 9 7 6 7 7 9 6 3 5 6 5 5 5 6 8 4 5 5 4 3 3 3 3 3 3 3 2 2 3 3
10 9 8 8 7 7 8 8 8 9 9 10 9 8 6 5 6 5 4 5 6 6 6 7 6 5 4 6 6 4 4 4 4 4 3 3 3 3 3 4 3 3 3 3
7 8 8 8 7 7 9 8 8 8 8 8 8 7 6 6 4 4 5 4 4 9 5 4 4 6 3 5 3 3 3 2 2 2 2 2 2 3 4 4 4 4 4 4
6 7 5 6 6 5 6 8 8 8 7 7 7 7 5 3 3 4 3 6 5 7 5 4 8 9 9 2 2 3 3 3 3 3 3 3 4 4 4 5 5 5 5 5
6 6 6 6 4 6 9 8 7 7 6 6 6 6 5 5 3 2 4 7 9 8 6 6 7 10 8 3 2 3 4 4 4 4 4 6 5 5 5 6 7 6 6 6
5 5 5 6 5 5 6 7 5 6 6 6 6 5 5 3 2 5 5 5 9 7 6 8 9 9 4 4 4 4 5 4 5 4 5 6 6 7 7 7 7 7 7 7
5 4 4 4 3 3 4 4 3 4 4 5 4 2 3 3 4 5 5 7 6 8 6 6 5 5 5 5 5 6 6 6 6 6 7 7 8 7 8 8 8 8 8 8
3 4 3 3 1 2 2 3 3 4 3 2 5 5 4 6 5 6 6 6 6 6 6 6 6 6 6 6 7 7 7 7 8 8 8 8 8 9 9 9 9 8 8 8
Wind_Direction
244 236 227 310 223 208 214 232 248 249 254 252 247 257 262 253 277 245 247 231 217 208 207 200 196 231 315 324 0 146 194 202 231 245 251 269 297 315 306 293 293 296 246 247
258 262 256 246 235 247 222 226 234 245 261 251 235 216 241 231 227 243 231 231 236 238 236 212 192 224 326 320 316 172 188 220 87 81 70 75 57 39 42 43 42 47 52 45
264 238 315 244 235 235 251 245 228 242 246 272 248 227 226 232 210 226 232 221 223 216 219 225 83 28 353 356 0 58 87 82 83 90 85 67 62 61 48 39 28 29 27 26
252 48 250 247 318 226 229 237 226 246 255 253 245 245 243 239 215 224 207 207 215 197 170 81 54 48 21 23 35 56 59 62 55 74 86 66 62 61 58 52 45 38 33 26
204 201 287 296 278 203 209 252 230 234 244 249 242 190 247 216 207 217 207 169 159 124 107 83 51 31 77 56 57 57 35 41 45 68 88 101 84 65 44 53 44 37 26 21
126 191 222 256 152 212 189 259 242 224 241 240 170 229 248 154 178 170 145 136 137 118 96 73 27 47 82 62 55 38 17 20 35 65 70 71 70 65 60 65 70 49 54 42
236 253 264 262 188 140 180 242 223 219 230 223 206 221 216 148 137 130 121 125 103 86 86 70 44 97 79 67 49 10 18 38 56 58 81 85 85 59 73 68 63 50 53 37
221 235 253 192 143 191 233 300 293 297 241 211 224 232 151 156 136 129 120 110 103 106 99 70 53 95 94 79 30 35 11 54 55 58 57 66 85 72 64 61 63 44 30 38
196 215 14 57 89 344 326 297 333 313 333 273 227 183 157 141 129 120 113 109 107 117 108 74 47 59 92 61 53 91 91 68 59 68 61 56 81 80 80 60 59 45 38 24
5 341 349 28 5 1 327 318 320 315 305 284 198 135 112 113 113 111 110 112 114 115 102 85 56 58 56 36 55 87 84 67 48 61 50 44 55 45 60 51 50 48 41 33
274 8 322 121 24 346 332 325 340 345 345 350 115 115 124 114 111 111 106 101 101 101 83 78 63 51 24 10 18 75 73 87 99 96 86 64 52 61 64 48 97 77 38 10
318 2 310 291 327 336 333 334 344 1 16 22 84 110 108 95 97 102 97 90 79 75 81 64 54 47 21 3 17 86 91 54 37 46 37 54 85 48 46 58 67 69 64 73
294 320 301 280 281 340 323 334 359 23 23 58 50 78 92 96 81 79 76 74 78 81 73 61 53 46 11 345 15 67 72 50 37 36 23 13 18 59 80 2 76 65 55 52
322 330 340 358 325 327 328 342 8 33 37 40 66 64 81 89 82 75 75 80 81 87 78 67 61 45 343 347 49 57 57 44 56 81 119 100 79 73 58 52 39 16 18 39
339 328 294 312 336 346 340 348 26 32 32 35 50 61 67 79 79 78 73 80 82 67 53 54 56 29 3 20 43 39 43 29 325 311 29 86 90 84 86 78 55 29 357 9
318 305 347 348 350 354 358 357 14 20 34 45 58 61 65 71 74 65 49 31 70 60 29 36 40 12 18 28 25 24 15 40 32 29 28 40 39 58 50 47 54 43 38 331
340 345 342 343 344 345 359 358 359 0 38 58 68 80 81 76 76 69 56 47 65 61 39 35 29 10 19 24 7 344 358 39 24 47 45 44 39 39 29 58 45 16 12 324
308 303 319 316 326 338 352 1 3 9 25 37 51 64 67 69 75 75 68 35 61 56 34 13 37 14 16 32 7 1 42 47 46 45 29 38 34 35 32 33 29 21 343 341
333 337 346 351 352 344 355 0 7 3 24 45 62 66 66 65 67 63 45 42 36 43 16 5 23 25 27 27 33 33 37 40 38 37 40 36 39 28 31 25 7 2 343 341
347 360 360 6 13 9 5 5 13 27 23 33 50 56 59 57 74 80 70 65 47 23 343 357 1 21 18 25 29 32 33 32 32 26 26 29 25 5 342 1 348 337 330 318
346 354 358 12 9 8 16 13 19 27 23 32 46 51 53 48 39 22 47 55 10 360 359 4 7 3 24 20 20 25 28 24 21 10 2 355 339 335 332 326 318 305 305 292
344 350 356 360 1 15 13 13 21 27 30 33 31 31 38 35 36 69 56 39 340 353 347 347 342 340 352 23 13 10 3 354 335 319 311 296 293 301 300 295 290 287 276 271
347 349 348 358 1 359 20 19 17 20 27 26 30 21 20 16 14 24 2 3 343 334 342 326 331 332 336 353 326 316 304 296 283 270 263 266 262 257 260 273 272 271 270 269
339 351 356 340 5 26 26 6 1 12 11 13 22 23 17 5 8 49 340 325 326 326 318 310 319 320 328 305 286 281 275 268 267 262 256 257 258 259 256 258 260 257 256 258
341 336 352 356 18 22 5 354 346 7 1 5 2 9 8 358 318 309 316 310 311 316 302 302 307 310 293 282 275 270 265 261 261 249 257 260 263 264 263 262 261 263 263 261
328 331 325 330 344 0 347 346 349 342 353 346 315 312 308 305 296 299 298 298 300 301 296 298 291 290 286 283 277 276 276 276 272 269 266 265 264 261 261 260 260 256 255 256
316 327 319 327 317 348 334 334 335 318 322 302 296 293 305 307 305 303 298 299 298 295 290 292 292 290 287 285 282 278 276 277 271 274 273 273 271 269 269 267 264 260 258 254